Regional Weather Roundup
Issued by NWS

Home | Current Version | Previous Version | Graphics & Text | Print | Product List | Glossary On
Versions: 1 2 3 4 5 6 7 8 9 10 11 12 13 14 15 16 17 18 19 20 21 22 23 24 25 26 27 28 29 30 31 32 33 34 35 36 37 38 39 40 41 42 43 44 45 46 47 48 49 50
000
ASUS43 KLOT 250108
RWRIL

ILLINOIS REGIONAL WEATHER ROUNDUP
NATIONAL WEATHER SERVICE CHICAGO/ROMEOVILLE IL
800 PM CDT TUE APR 24 2018

NOTE: "FAIR" INDICATES FEW OR NO CLOUDS BELOW 12,000 FEET WITH NO
SIGNIFICANT WEATHER AND/OR OBSTRUCTIONS TO VISIBILITY.

* THESE STATIONS ARE NOT UNDER NWS QUALITY CONTROL. THEY ALSO MAY NOT
  REPORT WEATHER SUCH AS PRECIPITATION OR FOG.

ILZ001-002-007-009-015-016-024-250200-
NORTHWEST ILLINOIS

CITY           SKY/WX    TMP DP  RH WIND       PRES   REMARKS
MOLINE         FAIR      69  31  24 N5        29.98R
STERLING*      FAIR      65  30  27 NE3       29.98R
SAVANNA*       FAIR      67  32  27 N6        29.98S
$$

ILZ003-004-008-010-011-017-018-250200-
NORTH CENTRAL ILLINOIS

CITY           SKY/WX    TMP DP  RH WIND       PRES   REMARKS
ROCKFORD       FAIR      62  23  22 NE8       29.99R
FREEPORT*      FAIR      62  31  31 N5        30.00R
ROCHELLE*      FAIR      62  36  37 N7        29.99R
DE KALB*       FAIR      60  48  64 E9        30.00R
PERU*          FAIR      65  37  35 NE7       29.97S
$$

ILZ005-006-012>014-019>023-250200-
NORTHEAST ILLINOIS

CITY           SKY/WX    TMP DP  RH WIND       PRES   REMARKS
CHICAGO-OHARE  FAIR      56  46  69 E9        29.99R
CHICAGO-MIDWAY FAIR      56  48  74 NE9       30.00R
AURORA         FAIR      60  47  61 NE8       29.98R
LANSING*       FAIR      50  48  92 NE6       30.00R
JOLIET*        FAIR      61  49  66 E10       29.98S
WAUKEGAN       FAIR      49  46  90 NE9       30.01R
DUPAGE AIRPORT FAIR      58  48  69 NE7       29.98R
KANKAKEE*      FAIR      55  48  76 NE9       29.99R
WHEELING       FAIR      54  47  77 NE7       30.02R
MORRIS*        FAIR      61  47  60 E7        29.97R
ROMEOVILLE*    FAIR      58  48  70 E9        29.99R
NORTHERLY ISL    N/A     49  45  86 N9          N/A
$$

LMZ740>746-250200-
SOUTHERN LAKE MICHIGAN

STATION/POSITION SKY/WX   TEMP    WIND        PRES    VSBY  WAVE
                          AIR SEA DIR/SP/G                  HT/PER
                          (F)     (DEG/KT/KT) (MB)    (MI)  (FT/S)
HARRISON CRIB              44     340/ 10/ 10   N/A
BURNHAM HARBOR             49     320/  7/ 10   N/A
CALUMET HARBOR             45     330/  6/  7 1015.5R
BURNS HARBOR               44      CALM  /  3 1016.3S
MICHIGAN CITY              45     360/  1/  2   N/A
ST. JOSEPH                 44 43   20/  8/ 10 1016.1          1/ 3
$$

ILZ025>027-034>036-040-047-049-050-058-095>099-250200-
WEST-CENTRAL ILLINOIS

CITY           SKY/WX    TMP DP  RH WIND       PRES   REMARKS
QUINCY         PTCLDY    62  31  31 N8        29.99S
GALESBURG*     FAIR      67  34  29 N6        30.00R
MACOMB*        PTCLDY    62  32  32 N7        30.01R
JACKSONVILLE*  CLEAR     64  38  38 NW7       29.97S
PITTSFIELD*    CLOUDY    65  36  33 NW5       30.00R
$$

ILZ028>032-037-038-041>044-048-051>054-059>061-250200-
CENTRAL ILLINOIS

CITY           SKY/WX    TMP DP  RH WIND       PRES   REMARKS
PONTIAC        FAIR      61  51  70 E9        29.98R
BLOOMINGTON    FAIR      62  50  64 E5        29.98R
DECATUR        FAIR      59  53  80 SE5       29.96S
PEORIA         FAIR      68  31  25 N5        29.97R
LACON*         FAIR      65  36  33 N3        29.95S
LINCOLN*       FAIR      64  53  67 CALM      29.96R
SPRINGFIELD    FAIR      66  42  41 CALM      29.96S
TAYLORVILLE    FAIR      62  51  66 SE3       29.97S
$$

ILZ033-039-045-046-055>057-062-063-250200-
EAST-CENTRAL ILLINOIS

CITY           SKY/WX    TMP DP  RH WIND       PRES   REMARKS
CHAMPAIGN      FAIR      57  51  80 NE3       29.96S
DANVILLE*      CLOUDY    57  52  84 NE5       29.94S
RANTOUL*       FAIR      58  54  86 E5        29.97R
MATTOON        FAIR      56  52  86 N5        29.96S
PARIS*         CLOUDY    58  53  83 NE3       29.97S
$$

ILZ079-100>102-250200-
SOUTHWEST ILLINOIS

CITY           SKY/WX    TMP DP  RH WIND       PRES   REMARKS
ALTON          CLEAR     61  46  59 CALM      29.98
BELLEVILLE     CLOUDY    61  51  70 CALM      29.97S
CAHOKIA*       PTCLDY    64  51  62 S3        29.98R
SPARTA*        CLEAR     61  55  79 CALM      30.00S
$$

ILZ064>066-069>071-074>076-080>082-084>086-088>090-092>094-250200-
SOUTH-CENTRAL ILLINOIS

CITY           SKY/WX    TMP DP  RH WIND       PRES   REMARKS
CARBONDALE     CLOUDY    60  53  77 NW3       29.99R
CAIRO*         CLOUDY    60  54  80 NW5       30.00R
EFFINGHAM*     FAIR      58  53  83 CALM      29.99R
MARION         CLOUDY    60  53  77 NW5       30.00R
MT. VERNON     FAIR      59  52  77 CALM      29.98S
CENTRALIA*     CLEAR     60  54  79 CALM      29.98S
SALEM*         FAIR      60  53  76 CALM      29.98S
METROPOLIS*    CLOUDY    61  54  76 NW7       29.99R
$$

ILZ067-068-072-073-078-083-087-091-250200-
SOUTHEAST ILLINOIS

CITY           SKY/WX    TMP DP  RH WIND       PRES   REMARKS
LAWRENCEVILLE  CLOUDY    59  55  87 MISG      29.96S
FLORA*         CLOUDY    60  54  79 CALM      29.97S
FAIRFIELD*     CLOUDY    58  55  87 CALM      29.97R
HARRISBURG*    CLOUDY    59  55  87 N3        29.99R
ROBINSON*      CLOUDY    56  54  91 NW6       29.97R
CARMI*         CLOUDY    57  55  92 NW6       29.97R
$$

ABBREVIATIONS USED IN REMARKS
   TC - TEMPERATURE IN CELSIUS
  WCI - WIND CHILL INDEX
   HX - HEAT INDEX
  VSB - VISIBILITY
$$





USA.gov is the U.S. government's official web portal to all federal, state and local government web resources and services.